sat.trackr.live / text

‹ back to catalog

ONEWEB-0336

NORAD 49202 · 2021-083S

PAYLOAD ACTIVE UNKNOWN

§ Identity

Operator
Country
UK
Launch date
2021-09-14
Launch site
TYMSC
Launch vehicle
Mass (kg)
RCS (m²)

Purposes: comms

External: N2YO · Heavens-Above · Gunter

§ Orbital elements

Epoch: 2026-09-08T16:09:18.582336Z

Period
109.63 min
Inclination
87.8931°
Eccentricity
0.0001911
Mean motion
13.13469078 rev/d
Perigee alt
1,208.3 km
Apogee alt
1,211.2 km
Semi-major
7,587.9 km
B*
8.5646e-4
RAAN
303.6171°
Arg perigee
106.5713°
Mean anomaly
253.5626°
Rev number
24,187

§ Raw data

ONEWEB-03361 49202U 21083S   26251.67313174  .00000326  00000+0  85646-3 0  99912 49202  87.8931 303.6171 0001911 106.5713 253.5626 13.13469078241874

JSON: /api/v1/satellites/49202 · /tle

For live sub-satellite position, see the globe view (requires WebGL).

§ Visibility from observer

Set your observer location to see the next 7 days of passes ≥ 10°. The values pass through the URL so the page stays shareable.

No JS? Fill the form by hand. The geolocation button needs JavaScript.